TimeEET,TemperatureF,Dew PointF,Humidity,Sea Level PressureIn,VisibilityMPH,Wind Direction,Wind SpeedMPH,Gust SpeedMPH,PrecipitationIn,Events,Conditions,WindDirDegrees,DateUTC
12:20 AM,32.0,28.4,87,30.04,4.3,North,20.7,-,N/A,Snow,Light Snow Showers,350,2013-01-07 22:20:00
12:50 AM,32.0,28.4,87,30.06,4.3,NNW,18.4,-,N/A,,Mostly Cloudy,340,2013-01-07 22:50:00
1:20 AM,32.0,26.6,80,30.06,5.0,North,20.7,-,N/A,Snow,Light Snow Showers,350,2013-01-07 23:20:00
1:50 AM,32.0,23.0,69,30.06,4.3,NNW,21.9,-,N/A,,Mostly Cloudy,340,2013-01-07 23:50:00
2:00 AM,31,23,64,30.09,4,NNW,21.9,,,,Mist,340,2013-01-08 00:00:00
2:20 AM,30.2,21.2,69,30.06,5.0,NNW,25.3,-,N/A,,Mostly Cloudy,340,2013-01-08 00:20:00
2:50 AM,30.2,19.4,64,30.09,6.2,NNW,21.9,-,N/A,,Mostly Cloudy,340,2013-01-08 00:50:00
3:20 AM,30.2,21.2,69,30.09,5.0,NNW,23.0,-,N/A,,Scattered Clouds,340,2013-01-08 01:20:00
3:50 AM,28.4,24.8,86,30.09,5.0,North,20.7,-,N/A,Snow,Light Snow Showers,350,2013-01-08 01:50:00
4:20 AM,30.2,21.2,69,30.09,6.2,NNW,18.4,-,N/A,,Mostly Cloudy,340,2013-01-08 02:20:00
4:50 AM,28.4,21.2,74,30.09,6.2,NNW,19.6,-,N/A,,Mostly Cloudy,330,2013-01-08 02:50:00
5:20 AM,28.4,23.0,80,30.09,5.0,NNW,20.7,-,N/A,Snow,Light Snow Showers,330,2013-01-08 03:20:00
5:50 AM,28.4,26.6,93,30.09,1.2,NNW,21.9,-,N/A,Snow,Snow Showers,340,2013-01-08 03:50:00
6:20 AM,28.4,28.4,100,30.12,2.5,NNW,17.3,-,N/A,Snow,Light Snow Showers,340,2013-01-08 04:20:00
6:50 AM,28.4,26.6,93,30.12,3.7,NNW,21.9,-,N/A,Snow,Light Snow Showers,340,2013-01-08 04:50:00
7:20 AM,26.6,26.6,100,30.12,0.6,NNW,23.0,-,N/A,Snow,Snow Showers,340,2013-01-08 05:20:00
7:50 AM,28.4,28.4,100,30.15,3.7,North,11.5,-,N/A,Snow,Light Snow Showers,350,2013-01-08 05:50:00
8:00 AM,28,28,100,30.17,4,North,11.5,,,Snow,Light Snow Showers,350,2013-01-08 06:00:00
8:20 AM,28.4,26.6,93,30.15,3.7,NNW,13.8,-,N/A,Snow,Light Snow Showers,340,2013-01-08 06:20:00
8:50 AM,28.4,28.4,100,30.15,2.5,NNW,17.3,-,N/A,Snow,Light Snow Showers,340,2013-01-08 06:50:00
9:20 AM,28.4,28.4,100,30.15,0.3,North,23.0,-,N/A,Snow,Heavy Snow Showers,350,2013-01-08 07:20:00
9:50 AM,28.4,28.4,100,30.15,3.7,North,15.0,-,N/A,Snow,Light Snow Showers,360,2013-01-08 07:50:00
10:20 AM,28.4,26.6,93,30.15,0.7,NNW,24.2,-,N/A,Snow,Snow Showers,340,2013-01-08 08:20:00
10:50 AM,28.4,26.6,93,30.15,0.4,NNW,24.2,-,N/A,Snow,Snow Showers,340,2013-01-08 08:50:00
11:20 AM,28.4,26.6,93,30.15,0.4,NNW,19.6,-,N/A,Snow,Heavy Snow Showers,330,2013-01-08 09:20:00
11:50 AM,28.4,28.4,100,30.15,3.7,NNW,21.9,-,N/A,Snow,Light Snow Showers,330,2013-01-08 09:50:00
12:20 PM,28.4,28.4,100,30.15,3.7,NNW,21.9,-,N/A,Snow,Light Snow Showers,330,2013-01-08 10:20:00
12:50 PM,28.4,26.6,93,30.15,3.7,NNW,21.9,-,N/A,Snow,Light Snow Showers,330,2013-01-08 10:50:00
1:20 PM,30.2,26.6,86,30.12,3.7,NW,19.6,-,N/A,Snow,Light Snow Showers,320,2013-01-08 11:20:00
1:50 PM,28.4,24.8,86,30.12,1.2,NW,20.7,-,N/A,Snow,Snow Showers,320,2013-01-08 11:50:00
2:00 PM,29,24,74,30.16,1,NW,20.7,,,Snow,Heavy Snow Showers,320,2013-01-08 12:00:00
2:20 PM,28.4,26.6,93,30.15,1.2,NW,18.4,-,N/A,Snow,Snow Showers,320,2013-01-08 12:20:00
2:50 PM,28.4,24.8,86,30.15,3.7,NW,20.7,-,N/A,Snow,Light Snow Showers,320,2013-01-08 12:50:00
3:20 PM,28.4,24.8,86,3.01,1.2,NW,20.7,-,N/A,Snow,Snow Showers,320,2013-01-08 13:20:00
3:50 PM,28.4,23.0,80,9999.90,3.7,NW,21.9,-,N/A,Snow,Light Snow Showers,320,2013-01-08 13:50:00
4:20 PM,28.4,24.8,86,30.15,3.7,NW,23.0,-,N/A,Snow,Light Snow Showers,320,2013-01-08 14:20:00
4:50 PM,28.4,24.8,86,30.15,1.2,NW,18.4,-,N/A,Snow,Snow Showers,320,2013-01-08 14:50:00
5:20 PM,28.4,26.6,93,30.15,0.4,NW,18.4,-,N/A,Snow,Heavy Snow Showers,310,2013-01-08 15:20:00
5:50 PM,26.6,26.6,100,30.18,1.6,NW,17.3,-,N/A,Snow,Snow Showers,310,2013-01-08 15:50:00
6:20 PM,26.6,26.6,100,30.18,1.6,NW,15.0,-,N/A,Snow,Snow Showers,310,2013-01-08 16:20:00
6:50 PM,26.6,26.6,100,30.18,3.7,NW,16.1,-,N/A,Snow,Light Snow Showers,310,2013-01-08 16:50:00
7:20 PM,26.6,26.6,100,30.18,2.5,NW,15.0,-,N/A,Snow,Snow Showers,310,2013-01-08 17:20:00
7:50 PM,26.6,26.6,100,30.18,2.5,WNW,15.0,-,N/A,Snow,Snow Showers,300,2013-01-08 17:50:00
8:00 PM,27,27,100,30.21,2,WNW,15.0,,,Snow,Heavy Snow Showers,300,2013-01-08 18:00:00
8:20 PM,26.6,26.6,100,30.18,1.2,NW,15.0,-,N/A,Snow,Snow Showers,310,2013-01-08 18:20:00
8:50 PM,28.4,28.4,100,30.18,1.2,NW,12.7,-,N/A,Snow,Snow Showers,310,2013-01-08 18:50:00
9:20 PM,28.4,28.4,100,30.15,1.2,NW,16.1,-,N/A,Snow,Snow Showers,320,2013-01-08 19:20:00
10:20 PM,28.4,28.4,100,30.18,1.6,WNW,15.0,-,N/A,Snow,Snow Showers,300,2013-01-08 20:20:00
10:50 PM,28.4,28.4,100,30.18,0.7,WNW,11.5,-,N/A,Snow,Heavy Snow Showers,300,2013-01-08 20:50:00
11:20 PM,28.4,28.4,100,30.18,0.7,WNW,11.5,-,N/A,Snow,Heavy Snow Showers,300,2013-01-08 21:20:00
11:50 PM,28.4,28.4,100,30.18,0.7,WNW,15.0,-,N/A,Snow,Heavy Snow Showers,300,2013-01-08 21:50:00